This demonstration page uses our WeatherBlox Daily Observations layout. Learn more.

Left ArrowRight Arrow

Hourly Observations for February 13, 2019

Temp ( °F °C ) Dew Point ( °F °C ) Humidity (%) Winds ( mph kmh ) Pressure ( in mb ) Visibility ( mi km ) Precip ( " mm )
12:15 am 00:15 Cloudy 27 -3 25 -4 93 93 W 24 39 29.91 1013 3 5 N/A
12:16 am 00:16 Cloudy 27 -3 27 -3 100 100 W 23 37 29.91 1013 3 4 N/A
12:35 am 00:35 Cloudy 27 -3 25 -4 93 93 WSW 22 35 29.92 1013 10 16 N/A
12:55 am 00:55 Cloudy 27 -3 25 -4 93 93 W 30 48 29.92 1013 7 11 N/A
12:56 am 00:56 Cloudy 27 -3 25 -4 93 93 W 32 52 29.92 1013 5 8 N/A
1:15 am 01:15 Cloudy 27 -3 21 -6 80 80 W 25 41 29.92 1013 10 16 N/A
1:16 am 01:16 Cloudy 27 -3 21 -6 80 80 W 25 41 29.92 1013 10 16 N/A
1:35 am 01:35 Cloudy 25 -4 25 -4 100 100 W 22 35 29.93 1014 2 3 N/A
1:55 am 01:55 Cloudy 25 -4 25 -4 100 100 W 20 31 29.93 1014 4 6 N/A
1:56 am 01:56 Cloudy 25 -4 25 -4 100 100 W 20 31 29.93 1014 4 6 N/A
2:15 am 02:15 Cloudy 25 -4 21 -6 86 86 W 25 41 29.93 1014 10 16 N/A
2:16 am 02:16 Cloudy 25 -4 21 -6 86 86 W 25 41 29.93 1014 10 16 N/A
2:35 am 02:35 Cloudy 25 -4 21 -6 86 86 W 26 43 29.93 1014 10 16 N/A
2:55 am 02:55 Cloudy 25 -4 19 -7 80 80 W 29 46 29.94 1014 10 16 N/A
2:56 am 02:56 Cloudy 25 -4 19 -7 80 80 W 30 48 29.94 1014 10 16 N/A
3:15 am 03:15 Cloudy 25 -4 19 -7 80 80 W 29 46 29.94 1014 10 16 N/A
3:36 am 03:36 Cloudy 23 -5 19 -7 86 86 W 23 37 29.93 1014 10 16 N/A
3:55 am 03:55 Cloudy 23 -5 19 -7 86 86 W 33 54 29.94 1014 10 16 N/A
4:15 am 04:15 Cloudy 23 -5 19 -7 86 86 W 23 37 29.95 1014 10 16 N/A
4:35 am 04:35 Cloudy 23 -5 19 -7 86 86 W 21 33 29.95 1014 10 16 N/A
4:36 am 04:36 Cloudy 23 -5 19 -7 86 86 W 22 35 29.95 1014 10 16 N/A
4:55 am 04:55 Cloudy 23 -5 19 -7 86 86 W 25 41 29.96 1015 10 16 N/A
5:15 am 05:15 Cloudy 23 -5 19 -7 86 86 W 32 52 29.97 1015 10 16 N/A
5:16 am 05:16 Cloudy 23 -5 19 -7 86 86 W 29 46 29.97 1015 10 16 N/A
5:35 am 05:35 Cloudy 23 -5 19 -7 86 86 W 23 37 29.98 1015 10 16 N/A
5:55 am 05:55 Cloudy 23 -5 19 -7 86 86 W 21 33 29.99 1016 10 16 N/A
6:15 am 06:15 Cloudy 21 -6 19 -7 93 93 W 21 33 30.01 1016 10 16 N/A
6:16 am 06:16 Cloudy 21 -6 19 -7 93 93 W 20 31 30.01 1016 10 16 N/A
6:35 am 06:35 Cloudy 21 -6 18 -8 86 86 W 22 35 30.02 1016 7 11 N/A
6:55 am 06:55 Cloudy 21 -6 19 -7 93 93 W 22 35 30.02 1016 7 11 N/A
7:15 am 07:15 Cloudy 21 -6 19 -7 93 93 W 24 39 30.03 1017 7 11 N/A
7:16 am 07:16 Cloudy 21 -6 19 -7 93 93 W 24 39 30.03 1017 7 11 N/A
7:35 am 07:35 Cloudy 21 -6 18 -8 86 86 W 25 41 30.04 1017 10 16 N/A
7:55 am 07:55 Cloudy 21 -6 18 -8 86 86 W 18 30 30.05 1018 10 16 N/A
7:56 am 07:56 Cloudy 21 -6 18 -8 86 86 W 17 28 30.05 1018 10 16 N/A
8:15 am 08:15 Cloudy 21 -6 18 -8 86 86 W 21 33 30.06 1018 10 16 N/A
8:16 am 08:16 Cloudy 21 -6 18 -8 86 86 W 21 33 30.06 1018 10 16 N/A
8:35 am 08:35 Cloudy 21 -6 18 -8 86 86 W 18 30 30.07 1018 10 16 N/A
8:55 am 08:55 Cloudy 21 -6 18 -8 86 86 W 17 28 30.08 1019 10 16 N/A
8:56 am 08:56 Cloudy 21 -6 18 -8 86 86 W 16 26 30.08 1019 10 16 N/A
9:15 am 09:15 Cloudy 21 -6 19 -7 93 93 W 22 35 30.09 1019 10 16 N/A
9:36 am 09:36 Cloudy 21 -6 19 -7 93 93 W 21 33 30.09 1019 10 16 N/A
9:55 am 09:55 Cloudy 23 -5 19 -7 86 86 W 22 35 30.09 1019 10 16 N/A
9:56 am 09:56 Cloudy 23 -5 19 -7 86 86 W 21 33 30.09 1019 10 16 N/A
10:15 am 10:15 Mostly Cloudy 23 -5 19 -7 86 86 W 20 31 30.09 1019 10 16 N/A
10:35 am 10:35 Partly Cloudy 23 -5 19 -7 86 86 W 22 35 30.10 1019 10 16 N/A
10:36 am 10:36 Partly Cloudy 23 -5 19 -7 86 86 W 21 33 30.10 1019 10 16 N/A
10:55 am 10:55 Partly Cloudy 25 -4 21 -6 86 86 WSW 20 31 30.10 1019 10 16 N/A
10:56 am 10:56 Partly Cloudy 25 -4 21 -6 86 86 W 18 30 30.10 1019 10 16 N/A
11:15 am 11:15 Partly Cloudy 27 -3 21 -6 80 80 WSW 23 37 30.11 1020 10 16 N/A
11:35 am 11:35 Partly Cloudy 27 -3 21 -6 80 80 W 24 39 30.11 1020 10 16 N/A
11:36 am 11:36 Mostly Cloudy 27 -3 21 -6 80 80 W 24 39 30.11 1020 10 16 N/A
11:56 am 11:56 Partly Cloudy 28 -2 23 -5 80 80 WSW 23 37 30.10 1019 10 16 N/A
1:35 pm 13:35 Sunny 30 -1 25 -4 80 80 W 21 33 30.09 1019 10 16 N/A
1:55 pm 13:55 Sunny 30 -1 25 -4 80 80 WSW 23 37 30.08 1019 10 16 N/A
2:15 pm 14:15 Sunny 32 undefined 25 -4 75 75 WSW 15 24 30.08 1018 10 16 N/A
2:35 pm 14:35 Sunny 32 undefined 25 -4 75 75 W 21 33 30.08 1018 10 16 N/A
2:36 pm 14:36 Sunny 32 undefined 25 -4 75 75 W 21 33 30.08 1018 10 16 N/A
2:55 pm 14:55 Sunny 32 undefined 25 -4 75 75 W 20 31 30.08 1018 10 16 N/A
3:15 pm 15:15 Sunny 32 undefined 25 -4 75 75 W 21 33 30.08 1018 10 16 N/A
3:35 pm 15:35 Sunny 32 undefined 25 -4 75 75 WSW 16 26 30.09 1019 10 16 N/A
3:36 pm 15:36 Sunny 32 undefined 25 -4 75 75 WSW 16 26 30.09 1019 10 16 N/A
3:55 pm 15:55 Sunny 32 undefined 25 -4 75 75 WSW 14 22 30.08 1018 10 16 N/A
4:16 pm 16:16 Sunny 32 undefined 25 -4 75 75 WSW 16 26 30.08 1018 10 16 N/A
4:35 pm 16:35 Sunny 32 undefined 25 -4 75 75 WSW 14 22 30.09 1019 10 16 N/A
4:55 pm 16:55 Sunny 30 -1 25 -4 80 80 W 17 28 30.08 1019 10 16 N/A
5:15 pm 17:15 Sunny 30 -1 25 -4 80 80 WSW 12 19 30.08 1019 10 16 N/A
5:16 pm 17:16 Sunny 30 -1 25 -4 80 80 SW 13 20 30.07 1018 10 16 N/A
5:35 pm 17:35 Sunny 30 -1 25 -4 80 80 WSW 16 26 30.08 1019 10 16 N/A
5:55 pm 17:55 Sunny 30 -1 25 -4 80 80 WSW 12 19 30.08 1019 10 16 N/A
6:15 pm 18:15 Sunny 30 -1 25 -4 80 80 WSW 9 15 30.08 1019 10 16 N/A
6:16 pm 18:16 Sunny 30 -1 25 -4 80 80 WSW 8 13 30.08 1019 10 16 N/A
6:35 pm 18:35 Clear 30 -1 25 -4 80 80 SW 10 17 30.08 1019 10 16 N/A
6:56 pm 18:56 Clear 30 -1 25 -4 80 80 SW 8 13 30.07 1018 10 16 N/A
7:15 pm 19:15 Clear 30 -1 25 -4 80 80 SSW 5 7 30.07 1018 10 16 N/A
7:16 pm 19:16 Clear 30 -1 25 -4 80 80 SSW 5 7 30.07 1018 10 16 N/A
7:35 pm 19:35 Clear 30 -1 25 -4 80 80 SSW 6 9 30.06 1018 10 16 N/A
7:55 pm 19:55 Clear 30 -1 25 -4 80 80 SW 8 13 30.06 1018 10 16 N/A
7:56 pm 19:56 Clear 30 -1 25 -4 80 80 SW 8 13 30.06 1018 10 16 N/A
8:15 pm 20:15 Clear 30 -1 25 -4 80 80 SW 8 13 30.06 1018 10 16 N/A
8:16 pm 20:16 Clear 30 -1 25 -4 80 80 SW 8 13 30.06 1018 10 16 N/A
8:35 pm 20:35 Clear 30 -1 25 -4 80 80 SW 9 15 30.06 1018 10 16 N/A
8:55 pm 20:55 Clear 30 -1 25 -4 80 80 SW 8 13 30.06 1018 10 16 N/A
8:56 pm 20:56 Clear 30 -1 25 -4 80 80 SSW 8 13 30.06 1018 10 16 N/A
9:15 pm 21:15 Clear 30 -1 25 -4 80 80 SSW 7 11 30.06 1018 10 16 N/A
9:16 pm 21:16 Clear 30 -1 25 -4 80 80 SW 8 13 30.06 1018 10 16 N/A
9:35 pm 21:35 Clear 30 -1 25 -4 80 80 SSW 6 9 30.05 1018 10 16 N/A
9:55 pm 21:55 Clear 30 -1 25 -4 80 80 S 5 7 30.05 1018 10 16 N/A
9:56 pm 21:56 Clear 30 -1 27 -3 86 86 S 5 7 30.05 1018 10 16 N/A
10:15 pm 22:15 Clear 30 -1 27 -3 86 86 S 6 9 30.04 1017 10 16 N/A
10:35 pm 22:35 Clear 30 -1 27 -3 86 86 SSW 6 9 30.05 1018 10 16 N/A
10:55 pm 22:55 Partly Cloudy 30 -1 27 -3 86 86 SW 8 13 30.06 1018 10 16 N/A
10:56 pm 22:56 Partly Cloudy 30 -1 27 -3 86 86 SW 8 13 30.06 1018 10 16 N/A
11:15 pm 23:15 Partly Cloudy 30 -1 27 -3 86 86 SSW 7 11 30.06 1018 10 16 N/A
11:35 pm 23:35 Partly Cloudy 30 -1 27 -3 86 86 S 6 9 30.05 1018 10 16 N/A
11:36 pm 23:36 Partly Cloudy 30 -1 27 -3 86 86 S 6 9 30.05 1018 10 16 N/A
11:55 pm 23:55 Clear 30 -1 27 -3 86 86 S 6 9 30.04 1017 10 16 N/A
11:56 pm 23:56 Clear 30 -1 27 -3 86 86 S 6 9 30.04 1017 10 16 N/A

Powered by AerisWeather